Simultaneous Nadir Overpasses (SNOs) Predictions

Prediction of SNOs between AQUA and GOES-15 Satellite Orbit:

Table of predicted SNOs for the next 14.0 days since TLE Epoch: 7/14/2017
Index Date Time (AQUA) AQUA Lat,Lon GOES-15 Lat,Lon Distance(km) Time Diff (sec)
1 07/16/2017 10:37:46 -0.06,-135.62 -0.17,-135.21 46.85 80
2 07/18/2017 10:25:35 -0.73,-132.67 -0.17,-135.16 283.68 80
3 07/18/2017 22:46:59 -0.39,-137.86 0.19,-135.18 305.01 80
4 07/20/2017 22:34:47 0.23,-134.90 0.20,-135.11 24.54 80
5 07/22/2017 22:22:35 0.85,-131.94 0.20,-135.05 353.47 80
6 07/23/2017 10:43:51 0.21,-137.10 -0.22,-135.00 238.60 80
7 07/25/2017 10:31:39 -0.41,-134.14 -0.22,-134.93 90.02 80
8 07/25/2017 22:53:03 -0.69,-139.33 0.24,-134.94 499.85 80
9 07/27/2017 10:19:26 -0.97,-131.17 -0.22,-134.86 418.47 80
10 07/27/2017 22:40:51 -0.06,-136.37 0.23,-134.86 171.27 80




NCC Satellite Simultaneous Nadir Overpasses (SNOs) Prediction Service
